Frenchville, ME

8:28 PM EDT on April 23, 2018 (GMT -0400)
Northern Aroostook Regional

Weather History for KFVE - October, 2011

Change the Weather History Date:

Sunday, October 2, 2011

  Actual Average Record
Temperature  
Mean Temperature 48 °F 47 °F  
Max Temperature 53 °F 56 °F 72 °F (2013)
Min Temperature 43 °F 39 °F 32 °F (2017)
Degree Days  
Heating Degree Days 17    
Month to date heating degree days 34  
Since 1 July heating degree days 418  
Cooling Degree Days 0    
Month to date cooling degree days 0  
Year to date cooling degree days 84  
Moisture  
Dew Point 43 °F    
Average Humidity 85    
Maximum Humidity 100    
Minimum Humidity 71    
Precipitation  
Precipitation T in 0.08 in 1.20 in (2008)
Month to date precipitation 0.08 0.16  
Year to date precipitation 34.69 25.74  
Sea Level Pressure  
Sea Level Pressure 30.12 in    
Wind  
Wind Speed 7 mph (NNE)    
Max Wind Speed 14 mph    
Max Gust Speed 21 mph    
Visibility 8 miles    
Events Rain    
T = Trace of Precipitation, MM = Missing Value Source: NWS Daily Summary

Daily Weather History Graph

Daily Weather History Graph

Search for Another Location

Airport or City:

Astronomy

Oct. 02, 2011 Rise Set
Actual Time 6:33 AM EDT 6:11 PM EDT
Civil Twilight 6:02 AM EDT 6:41 PM EDT
Nautical Twilight 5:27 AM EDT 7:17 PM EDT
Astronomical Twilight 4:50 AM EDT 7:53 PM EDT
Moon 1:00 PM EDT (10/2) 9:42 PM EDT (10/2)
Length of Visible Light 12h 39m
Length of Day
11h 38m
Waxing Crescent, 34% of the Moon is Illuminated
Oct 2
Waxing Crescent
Oct 3
First Quarter
Oct 11
Full
Oct 19
Last Quarter
Oct 26
New

Hourly Weather History & Observations

Time (EDT) Temp. Windchill Dew Point Humidity Pressure Visibility Wind Dir Wind Speed Gust Speed Precip Events Conditions
12:53 AM 43.0 °F 38.2 °F 39.0 °F 86% 30.08 in 10.0 mi North 8.1 mph - N/A   Overcast
1:53 AM 43.0 °F 38.8 °F 39.9 °F 89% 30.09 in 10.0 mi North 6.9 mph - N/A   Overcast
2:53 AM 43.0 °F 38.8 °F 39.0 °F 86% 30.10 in 10.0 mi North 6.9 mph - N/A   Overcast
3:53 AM 43.0 °F 38.2 °F 39.0 °F 86% 30.11 in 7.0 mi NNE 8.1 mph - N/A   Overcast
4:53 AM 44.1 °F 39.5 °F 39.0 °F 82% 30.12 in 10.0 mi NNE 8.1 mph - N/A   Overcast
5:53 AM 44.6 °F 40.7 °F 39.2 °F 81% 30.11 in 10.0 mi NNE 6.9 mph - N/A   Overcast
6:53 AM 45.0 °F 40.6 °F 39.9 °F 82% 30.16 in 10.0 mi NNE 8.1 mph - N/A   Overcast
7:53 AM 44.1 °F 40.1 °F 42.1 °F 93% 30.17 in 3.0 mi NNE 6.9 mph - N/A   Overcast
8:22 AM 44.6 °F 41.4 °F 42.8 °F 93% 30.16 in 2.5 mi NNE 5.8 mph - N/A   Overcast
8:30 AM 44.6 °F 42.2 °F 42.8 °F 93% 30.16 in 2.0 mi NNE 4.6 mph - N/A   Overcast
8:53 AM 44.1 °F 40.1 °F 43.0 °F 96% 30.18 in 1.8 mi NNE 6.9 mph - N/A   Overcast
9:04 AM 44.6 °F 41.4 °F 42.8 °F 93% 30.16 in 2.5 mi North 5.8 mph - N/A   Overcast
9:12 AM 44.6 °F 41.4 °F 44.6 °F 100% 30.16 in 3.0 mi NNE 5.8 mph - N/A   Overcast
9:53 AM 46.9 °F - 44.1 °F 90% 30.17 in 10.0 mi NNE 6.9 mph - N/A   Overcast
10:53 AM 48.9 °F - 43.0 °F 80% 30.17 in 8.0 mi NE 5.8 mph - N/A   Overcast
11:53 AM 51.8 °F - 44.6 °F 76% 30.14 in 10.0 mi NE 5.8 mph - N/A   Overcast
12:53 PM 53.1 °F - 44.1 °F 71% 30.13 in 10.0 mi NE 10.4 mph - N/A   Overcast
1:53 PM 53.1 °F - 45.0 °F 74% 30.12 in 10.0 mi ENE 8.1 mph - N/A   Overcast
2:53 PM 53.1 °F - 46.0 °F 77% 30.11 in 10.0 mi NE 8.1 mph - N/A   Overcast
3:53 PM 53.1 °F - 46.0 °F 77% 30.11 in 8.0 mi NNE 5.8 mph - N/A   Overcast
4:10 PM 51.8 °F - 46.4 °F 82% 30.09 in 2.5 mi NE 10.4 mph 16.1 mph 0.00 in Rain Light Rain
4:20 PM 51.8 °F - 46.4 °F 82% 30.09 in 6.0 mi NE 8.1 mph - 0.00 in   Haze
4:53 PM 53.6 °F - 46.4 °F 77% 30.09 in 10.0 mi NNE 6.9 mph - N/A   Overcast
5:53 PM 52.0 °F - 46.0 °F 80% 30.09 in 10.0 mi NE 10.4 mph - N/A   Overcast
6:53 PM 51.1 °F - 46.0 °F 83% 30.11 in 10.0 mi North 4.6 mph - N/A   Overcast
7:53 PM 50.0 °F - 45.0 °F 83% 30.09 in 10.0 mi NE 8.1 mph 17.3 mph N/A   Overcast
8:53 PM 48.9 °F - 45.0 °F 86% 30.09 in 10.0 mi NE 3.5 mph - N/A   Overcast
9:53 PM 48.9 °F - 45.0 °F 86% 30.09 in 10.0 mi NNE 5.8 mph - N/A   Overcast
10:49 PM 48.2 °F - 44.6 °F 87% 30.07 in 10.0 mi NNE 8.1 mph - N/A   Overcast
10:53 PM 48.9 °F - 44.1 °F 83% 30.08 in 10.0 mi North 4.6 mph - N/A   Overcast
11:53 PM 48.0 °F - 44.1 °F 86% 30.06 in 10.0 mi NNE 8.1 mph - N/A   Overcast